Time,TemperatureF,DewpointF,PressureIn,WindDirection,WindDirectionDegrees,WindSpeedMPH,WindSpeedGustMPH,Humidity,HourlyPrecipIn,Conditions,Clouds,dailyrainin,SoftwareType,DateUTC
2013-01-19 00:00:00,38.0,32.7,29.22,SW,225,3.0,6.0,81,0.00,,,-99.99,Weather View 32 v60,2013-01-19 06:00:00,
2013-01-19 00:30:00,37.0,32.0,29.23,WSW,248,5.0,5.0,82,0.00,,,-99.99,Weather View 32 v60,2013-01-19 06:30:00,
2013-01-19 01:00:00,37.0,32.3,29.24,SW,225,2.0,6.0,83,0.00,,,-99.99,Weather View 32 v60,2013-01-19 07:00:00,
2013-01-19 01:30:00,38.0,33.3,29.25,WSW,248,4.0,6.0,83,0.00,,,-99.99,Weather View 32 v60,2013-01-19 07:30:00,
2013-01-19 02:00:00,38.0,33.3,29.23,WSW,248,2.0,7.0,83,0.00,,,-99.99,Weather View 32 v60,2013-01-19 08:00:00,
2013-01-19 02:30:00,37.0,32.3,29.23,SSW,202,0.0,7.0,83,0.00,,,-99.99,Weather View 32 v60,2013-01-19 08:30:00,
2013-01-19 03:00:00,38.0,33.3,29.23,SW,225,1.0,6.0,83,0.00,,,-99.99,Weather View 32 v60,2013-01-19 09:00:00,
2013-01-19 03:30:00,38.0,33.0,29.23,SSE,158,1.0,4.0,82,0.00,,,-99.99,Weather View 32 v60,2013-01-19 09:30:00,
2013-01-19 04:00:00,38.0,33.0,29.21,SE,135,1.0,5.0,82,0.00,,,-99.99,Weather View 32 v60,2013-01-19 10:00:00,
2013-01-19 06:00:00,38.0,33.6,29.19,SSW,202,3.0,6.0,84,0.00,,,-99.99,Weather View 32 v60,2013-01-19 12:00:00,
2013-01-19 06:30:00,38.0,33.3,29.19,SW,225,3.0,6.0,83,0.00,,,-99.99,Weather View 32 v60,2013-01-19 12:30:00,
2013-01-19 07:00:00,38.0,33.3,29.18,SSW,202,4.0,5.0,83,0.00,,,-99.99,Weather View 32 v60,2013-01-19 13:00:00,
2013-01-19 07:30:00,39.0,34.0,29.17,SSW,202,5.0,6.0,82,0.00,,,-99.99,Weather View 32 v60,2013-01-19 13:30:00,
2013-01-19 08:00:00,39.0,34.0,29.17,SSW,202,3.0,10.0,82,0.00,,,-99.99,Weather View 32 v60,2013-01-19 14:00:00,
2013-01-19 08:30:00,40.0,34.0,29.16,SW,225,5.0,10.0,79,0.00,,,-99.99,Weather View 32 v60,2013-01-19 14:30:00,
2013-01-19 09:00:00,40.0,33.7,29.14,SW,225,5.0,12.0,78,0.00,,,-99.99,Weather View 32 v60,2013-01-19 15:00:00,
2013-01-19 09:30:00,40.0,33.7,29.14,WSW,248,8.0,12.0,78,0.00,,,-99.99,Weather View 32 v60,2013-01-19 15:30:00,
2013-01-19 10:00:00,42.0,34.3,29.12,SSW,202,7.0,13.0,74,0.00,,,-99.99,Weather View 32 v60,2013-01-19 16:00:00,
2013-01-19 10:30:00,45.0,34.7,29.10,WSW,248,10.0,16.0,67,0.00,,,-99.99,Weather View 32 v60,2013-01-19 16:30:00,
2013-01-19 11:00:00,46.0,34.5,29.08,SW,225,10.0,16.0,64,0.00,,,-99.99,Weather View 32 v60,2013-01-19 17:00:00,
2013-01-19 11:30:00,48.0,34.8,29.06,West,270,6.0,16.0,60,0.00,,,-99.99,Weather View 32 v60,2013-01-19 17:30:00,
2013-01-19 12:00:00,48.0,33.0,29.06,WSW,248,6.0,21.0,56,0.00,,,-99.99,Weather View 32 v60,2013-01-19 18:00:00,
2013-01-19 13:00:00,48.0,33.0,29.04,West,270,13.0,15.0,56,0.00,,,-99.99,Weather View 32 v60,2013-01-19 19:00:00,
2013-01-19 14:00:00,48.0,33.9,29.03,WSW,248,12.0,19.0,58,0.00,,,-99.99,Weather View 32 v60,2013-01-19 20:00:00,
2013-01-19 15:00:00,47.0,33.4,29.05,West,270,13.0,20.0,59,0.00,,,-99.99,Weather View 32 v60,2013-01-19 21:00:00,
2013-01-19 15:30:00,47.0,32.1,29.06,WNW,292,14.0,24.0,56,0.00,,,-99.99,Weather View 32 v60,2013-01-19 21:30:00,